Time,TemperatureF,DewpointF,PressureIn,WindDirection,WindDirectionDegrees,WindSpeedMPH,WindSpeedGustMPH,Humidity,HourlyPrecipIn,Conditions,Clouds,dailyrainin,SoftwareType,DateUTC
2013-08-07 00:00:00,59.2,54.7,30.10,NE,45,0.0,0.0,85,0.00,,SKC,0.00,VWS V14.01,2013-08-07 04:00:00,
2013-08-07 01:00:00,59.2,54.7,30.10,NE,45,0.0,0.0,85,0.00,,SKC,0.00,VWS V14.01,2013-08-07 05:00:00,
2013-08-07 02:00:00,56.8,53.0,30.11,NE,45,0.0,0.0,87,0.00,,SKC,0.00,VWS V14.01,2013-08-07 06:00:00,
2013-08-07 03:00:00,56.8,53.0,30.11,NE,45,0.0,0.0,87,0.00,,SKC,0.00,VWS V14.01,2013-08-07 07:00:00,
2013-08-07 04:00:00,55.7,51.9,30.11,NE,45,0.0,0.0,87,0.00,,SKC,0.00,VWS V14.01,2013-08-07 08:00:00,
2013-08-07 05:00:00,55.7,51.9,30.11,NE,45,0.0,0.0,87,0.00,,SKC,0.00,VWS V14.01,2013-08-07 09:00:00,
2013-08-07 06:00:00,54.9,51.1,30.13,NE,45,0.0,0.0,87,0.00,,SKC,0.00,VWS V14.01,2013-08-07 10:00:00,
2013-08-07 07:00:00,54.9,51.1,30.13,NE,45,0.0,0.0,87,0.00,,SKC,0.00,VWS V14.01,2013-08-07 11:00:00,
2013-08-07 08:00:00,56.3,53.7,30.13,NE,45,0.0,0.0,91,0.00,,SKC,0.00,VWS V14.01,2013-08-07 12:00:00,
2013-08-07 09:00:00,56.3,53.7,30.13,NE,45,0.0,0.0,91,0.00,,SKC,0.00,VWS V14.01,2013-08-07 13:00:00,
2013-08-07 10:00:00,69.0,58.0,30.13,North,0,0.0,2.0,68,0.00,,SKC,0.00,VWS V14.01,2013-08-07 14:00:00,
2013-08-07 11:00:00,69.0,58.0,30.13,North,0,0.0,2.0,68,0.00,,SKC,0.00,VWS V14.01,2013-08-07 15:00:00,
2013-08-07 12:00:00,76.5,61.1,30.12,NNW,338,0.0,5.0,59,0.00,,SKC,0.00,VWS V14.01,2013-08-07 16:00:00,
2013-08-07 13:00:00,76.5,61.1,30.12,NNW,338,0.0,5.0,59,0.00,,SKC,0.00,VWS V14.01,2013-08-07 17:00:00,
2013-08-07 14:00:00,80.9,57.6,30.10,ENE,68,1.0,6.0,45,0.00,,SKC,0.00,VWS V14.01,2013-08-07 18:00:00,
2013-08-07 15:00:00,80.9,57.6,30.10,ENE,68,1.0,6.0,45,0.00,,SKC,0.00,VWS V14.01,2013-08-07 19:00:00,
2013-08-07 16:00:00,81.0,62.3,30.08,ENE,68,0.0,7.0,53,0.00,,SKC,0.00,VWS V14.01,2013-08-07 20:00:00,
2013-08-07 17:00:00,81.0,62.3,30.08,ENE,68,0.0,7.0,53,0.00,,SKC,0.00,VWS V14.01,2013-08-07 21:00:00,
2013-08-07 18:00:00,76.0,63.0,30.07,ENE,68,0.0,6.0,64,0.00,,SKC,0.00,VWS V14.01,2013-08-07 22:00:00,
2013-08-07 19:00:00,76.0,63.0,30.07,ENE,68,0.0,6.0,64,0.00,,SKC,0.00,VWS V14.01,2013-08-07 23:00:00,
2013-08-07 20:00:00,71.6,60.9,30.06,ENE,68,0.0,3.0,69,0.00,,SKC,0.00,VWS V14.01,2013-08-08 00:00:00,
2013-08-07 21:00:00,71.6,60.9,30.06,ENE,68,0.0,3.0,69,0.00,,SKC,0.00,VWS V14.01,2013-08-08 01:00:00,
2013-08-07 22:00:00,67.3,57.6,30.07,SSW,202,0.0,1.0,71,0.00,,SKC,0.00,VWS V14.01,2013-08-08 02:00:00,
2013-08-07 23:00:00,67.3,57.6,30.07,SSW,202,0.0,1.0,71,0.00,,SKC,0.00,VWS V14.01,2013-08-08 03:00:00,